Regional Weather Roundup
Issued by NWS Albany, NY

Home | Current Version | Previous Version | Text Only | Print | Product List | Glossary On
Versions: 1 2 3 4 5 6 7 8 9 10 11 12 13 14 15 16 17 18 19 20 21 22 23 24 25 26 27 28 29 30 31 32 33 34 35 36 37 38 39 40 41 42 43 44 45 46 47 48 49
000
ASUS41 KALY 281610
RWRALY

NEW YORK STATE HOURLY WEATHER ROUNDUP
NATIONAL WEATHER SERVICE ALBANY NY
1100 AM EST SUN DEC 28 2014

NOTE: "FAIR" INDICATES FEW OR NO CLOUDS BELOW 12,000 FEET WITH NO
SIGNIFICANT WEATHER AND/OR NO OBSTRUCTIONS TO VISIBILITY.

NYZ032-033-038>043-046>054-057>066-NYZ062>081-281700-
EAST


CITY           SKY/WX    TMP DP  RH WIND       PRES   REMARKS
ALBANY         CLOUDY    45  36  70 W15       29.89R
GLENS FALLS    CLOUDY    45  39  79 MISG      29.83S
POUGHKEEPSIE   CLOUDY    48  40  73 SW10      29.86F
NEWBURGH       PTSUNNY   48  43  81 W14       29.89S
MONTGOMERY     CLOUDY    48  42  80 SW6       29.87S
WHITE PLAINS   CLOUDY    45  42  89 W5        29.87F
ISLIP          DRIZZLE   47  42  83 W13       29.88F
NEW YORK CITY  CLOUDY    46  41  82 SW8       29.90F
CENTRAL PARK   CLOUDY    47  40  76 VRB5G17   29.92F
$$

NYZ005>009-017-018-044>046-055-056-281700-
CENTRAL


CITY           SKY/WX    TMP DP  RH WIND       PRES   REMARKS
FULTON         CLOUDY    38  29  70 W16G24    29.96R WCI  29
SYRACUSE       CLOUDY    38  32  79 W17       29.96R WCI  28
ROME           CLOUDY    38  35  89 W13       29.95R WCI  30
ELMIRA         PTSUNNY   42  34  73 NW8       29.95F
BINGHAMTON     CLOUDY    37  34  89 NW6       29.91S WCI  32
MONTICELLO     CLOUDY    43  41  93 W13G20    29.87S
$$

NYZ026>034-041>043-281700-
NORTH


CITY           SKY/WX    TMP DP  RH WIND       PRES   REMARKS
WATERTOWN      CLOUDY    38  25  59 W14       29.93R WCI  30
FORT DRUM      NOT AVBL
MASSENA        CLOUDY    40  27  59 W16G23    29.85F WCI  31
SARANAC LAKE   CLOUDY    35  30  82 W8        29.77F WCI  29
PLATTSBURGH    CLOUDY    43  30  60 W13G23    29.79S
$$

NYZ001>004-010>016-019>021-281700-
WEST


CITY           SKY/WX    TMP DP  RH WIND       PRES   REMARKS
NIAGARA FALLS  CLOUDY    34  26  72 W14       30.02R WCI  25
BUFFALO        CLOUDY    35  27  72 W15       30.00S WCI  25
DUNKIRK        CLOUDY    36  28  73 W10       30.05R WCI  28
JAMESTOWN      CLOUDY    34  28  80 NW12      29.99R WCI  25
WELLSVILLE     CLOUDY    35  30  82 W14       29.94F WCI  26
ROCHESTER      CLOUDY    38  28  67 NW16      29.98S WCI  29
PENN YAN       CLOUDY    38  32  79 NW10      29.95S WCI  31
$$

             KEY
       WCI = WIND CHILL INDEX
       VSB = VISIBILITY
       HX  = HEAT INDEX
$$



USA.gov is the U.S. government's official web portal to all federal, state and local government web resources and services.